www.pogodaiklimat.ru

Погода и климат >> Архив погоды >> Австралия >> Западная Австралия >> Саутерн Кросс


ПОГОДА в Саутерн Кросс

  • Прогноз погоды в Саутерн Кросс
  • Монитор погоды в Саутерн Кросс

АРХИВ ПОГОДЫ в Саутерн Кросс

Время (UTC), дата Ветер
(напр.,м/с)
 
Видим.   Явления Облачность Т
(С)
Тd
(С)
f
(%)
Тe
(С)
Тes
(С)
Комфортность P
(гПа)
Po
(гПа)
Тmin
(С)
Tmax
(С)
R
(мм)
R24
(мм)
S
(см)
16 14.09 Ю 2 н/о н/о +15.8 +10.6 71 +16 +16 1021.0 979.9
18 14.09 ЮВ 2 н/о н/о +13.3 +9.2 76 +13 +13 1021.4 980.3
19 14.09 ЮВ 3 н/о 9/0
[]
+14.9 +11.7 81 +14 +14 1020.9 979.8
21 14.09 ЮВ 5 н/о н/о +15.1 +12.4 84 +14 +14 1021.9 980.7
22 14.09 ЮВ 5 н/о 10/0
[]
+14.8 +12.1 84 +13 +13 1022.4 981.2
00 15.09 ЮВ 7 н/о н/о +17.0 +12.5 75 +16 +16 1022.9 981.7
01 15.09 ЮВ 6 н/о 4/0
[]
+18.9 +12.6 67 +19 +22 1022.9 981.7 +13.3
03 15.09 ЮВ 4 н/о н/о +23.1 +12.7 52 +26 +26 жарко 1021.9 980.7
04 15.09 ЮВ 4 н/о н/о +23.9 +12.5 49 +26 +26 жарко 1021.2 980.1
06 15.09 Ю 4 н/о н/о +24.9 +11.8 44 +26 +26 жарко 1020.2 979.1
07 15.09 Ю 6 н/о н/о +25.2 +11.7 43 +27 +27 жарко 1020.2 979.1
09 15.09 Ю 6 н/о н/о +24.2 +10.8 43 +25 +25 комфорт 1020.7 979.6
10 15.09 ЮВ 4 н/о н/о +22.5 +10.6 47 +24 +24 комфорт 1021.2 980.1
12 15.09 В 6 н/о н/о +18.5 +11.3 63 +19 +19 1022.3 981.1
13 15.09 В 8 н/о 8/0
[]
+17.1 +11.2 68 +16 +16 1022.4 981.2 +26.4
15 15.09 В 6 н/о н/о +15.2 +10.0 71 +14 +14 1022.8 981.6
16 15.09 ЮВ 8 н/о 10/0
[]
+14.5 +8.0 65 +12 +12 1023.1 981.9
18 15.09 В 7 н/о н/о +13.2 +6.3 63 +11 +11 1023.1 981.9
19 15.09 В 5 н/о 6/0
[]
+12.6 +6.4 66 +10 +10 1023.1 981.9
21 15.09 В 6 н/о н/о +12.6 +6.2 65 +10 +10 1024.2 982.9
22 15.09 В 4 н/о н/о +12.1 +6.2 67 +10 +10 1024.3 983.0
00 16.09 СВ 8 н/о н/о +15.7 +8.2 61 +14 +14 1024.4 983.1
01 16.09 СВ 8 н/о н/о +17.6 +8.7 56 +17 +17 1023.7 982.5 +12.1
03 16.09 С 7 н/о н/о +21.2 +7.4 41 +22 +22 комфорт 1022.2 981.0
04 16.09 С 6 н/о н/о +22.8 +7.4 37 +24 +24 комфорт 1021.0 979.9
06 16.09 С 5 н/о н/о +26.0 +8.0 32 +26 +26 жарко 1018.8 977.8
07 16.09 СВ 5 н/о 4/0
[]
+26.1 +7.2 30 +26 +29 жарко 1018.2 977.2
09 16.09 С 4 н/о н/о +25.7 +7.3 31 +26 +26 жарко 1017.8 976.8
10 16.09 С 3 9000 м 1/0
[]
+22.7 +6.9 36 +23 +23 комфорт 1018.0 977.0
12 16.09 СВ 4 н/о н/о +22.2 +7.2 38 +23 +23 комфорт 1018.9 977.9
13 16.09 СВ 5 н/о 3/0
[]
+20.4 +7.4 43 +21 +21 комфорт 1019.4 978.3 +26.9
15 16.09 СВ 5 н/о н/о +18.6 +7.1 47 +19 +19 1018.3 977.3
16 16.09 СВ 4 н/о 6/0
[]
+17.9 +6.7 48 +18 +18 1018.3 977.3
18 16.09 С 7 н/о н/о +17.9 +6.1 46 +17 +17 1016.6 975.6
19 16.09 С 2 н/о 10/0
[]
+17.1 +5.7 47 +18 +18 1017.4 976.4
21 16.09 СВ 3 н/о н/о +16.1 +5.7 50 +16 +16 1017.2 976.2
22 16.09 В 3 н/о 8/0
[]
+15.2 +5.7 53 +15 +15 1017.3 976.3
00 17.09 С 5 н/о н/о +19.4 +6.5 43 +20 +20 1017.7 976.7
01 17.09 С 4 н/о 4/0
[]
+22.2 +6.4 36 +23 +27 комфорт 1017.7 976.7 +15.0
03 17.09 С 5 н/о н/о +25.3 +6.5 30 +25 +25 комфорт 1016.7 975.7
04 17.09 З 5 н/о н/о +28.6 +6.1 24 +27 +27 жарко 1015.7 974.8
06 17.09 З 5 н/о н/о +30.0 +4.6 20 +28 +28 жарко 1013.7 972.9
07 17.09 З 5 н/о 1/0
[]
+29.6 +5.0 21 +28 +32 жарко 1013.2 972.4
09 17.09 ЮЗ 6 н/о н/о +28.8 +5.0 22 +27 +27 жарко 1013.3 972.5
10 17.09 ЮЗ 5 н/о н/о +26.6 +5.0 25 +26 +26 жарко 1013.6 972.8
12 17.09 ЮЗ 6 н/о н/о +22.8 +7.8 38 +24 +24 комфорт 1016.0 975.1
13 17.09 ЮЗ 6 н/о н/о +20.9 +7.9 43 +22 +22 комфорт 1016.8 975.8 +31.1
15 17.09 ЮЗ 5 н/о н/о +17.4 +10.8 65 +17 +17 1017.1 976.1
16 17.09 ЮЗ 6 н/о н/о +16.4 +10.5 68 +15 +15 1017.1 976.1
18 17.09 ЮЗ 2 н/о н/о +13.3 +9.7 79 +13 +13 1016.6 975.6
19 17.09 ЮЗ 2 н/о н/о +12.2 +9.0 81 +12 +12 1016.1 975.2
21 17.09 ЮЗ 3 н/о н/о +11.0 +9.1 88 +9 +9 1016.2 975.3
22 17.09 СВ 2 н/о н/о +8.8 +7.3 90 +7 +7 1016.1 975.2
00 18.09 ЮЗ 5 н/о н/о +14.3 +9.9 75 +13 +13 1016.9 975.9
01 18.09 З 6 н/о 8/8 600 м
[]
+16.7 +10.3 66 +16 +16 1016.9 975.9 +8.8
03 18.09 З 6 н/о н/о +18.8 +8.7 52 +19 +19 1015.7 974.8
04 18.09 З 6 н/о 1/1 1000 м
[]
+20.2 +7.2 43 +21 +26 комфорт 1014.3 973.4
06 18.09 З 9 н/о н/о +22.8 +5.7 33 +23 +23 комфорт 1012.2 971.4
07 18.09 З 9 н/о н/о +23.7 +5.6 31 +24 +24 комфорт 1011.4 970.7
09 18.09 З 10 н/о н/о +22.4 +4.9 32 +23 +23 комфорт 1011.1 970.4
10 18.09 З 8 н/о н/о +21.2 +4.7 34 +22 +22 комфорт 1011.1 970.4
12 18.09 З 7 н/о н/о +18.6 +5.8 43 +18 +18 1011.4 970.7
13 18.09 З 10 н/о н/о +17.1 +10.0 63 +16 +16 1011.7 970.9 +24.2
15 18.09 З 10 н/о н/о +15.7 +9.6 67 +14 +14 1011.3 970.6
16 18.09 З 10 н/о 10/10 600 м
[]
+15.3 +10.1 71 +13 +13 1011.1 970.4
18 18.09 З 8 н/о н/о +13.8 +10.6 81 +11 +11 1010.5 969.8
19 18.09 ЮЗ 8 н/о в посл. час дождь {туман} 10/10 300 м
[]
+11.3 +9.4 88 +8 +8 1011.3 970.6
21 18.09 Ю 8 н/о н/о +9.7 +6.2 79 +6 +6 1013.7 972.9
22 18.09 ЮЗ 5 н/о {туман} 4/4 600 м
[]
+8.1 +5.4 83 +4 +4 1014.6 973.7
00 19.09 ЮЗ 9 н/о н/о +9.9 +3.4 64 +6 +6 1016.7 975.7
01 19.09 ЮЗ 10 н/о {туман} 5/5 600 м
[]
+11.4 +2.2 53 +8 +8 1017.2 976.2 +7.9
03 19.09 Ю 11 н/о н/о +12.1 +0.2 44 +9 +9 1017.8 976.8
04 19.09 Ю 11 н/о 10/10 1000 м
[]
+12.6 -0.6 40 +9 +9 1017.8 976.8
06 19.09 Ю 10 н/о н/о +13.9 -2.5 32 +11 +11 1018.2 977.2
07 19.09 Ю 10 н/о 9/0 2000 м
[]
+14.0 -3.3 30 +11 +12 1018.4 977.4
09 19.09 ЮЗ 9 н/о н/о +13.2 -2.7 33 +11 +11 1020.0 978.9
10 19.09 Ю 8 н/о 9/0 2000 м
[]
+11.9 -2.7 36 +9 +9 1020.8 979.7
12 19.09 Ю 4 н/о н/о +8.9 -0.4 52 +7 +7 1023.2 982.0
13 19.09 Ю 5 н/о н/о +7.8 +0.3 59 +5 +5 1023.5 982.3 +18.7
15 19.09 Ю 4 н/о н/о +5.7 +0.7 70 +2 +2 1023.8 982.6
16 19.09 Ю 4 н/о н/о +4.6 +0.4 74 +1 +1 1024.3 983.0
18 19.09 Ю 4 н/о н/о +4.0 +0.7 79 -0 -0 1024.3 983.0
19 19.09 Ю 5 н/о н/о +3.3 +0.5 82 -2 -2 1024.5 983.2
21 19.09 штиль 0 н/о н/о +1.3 -0.5 88 0 0 1025.8 984.5
22 19.09 штиль 0 н/о н/о -0.3 -1.9 89 -2 -2 1026.1 984.8
00 20.09 Ю 4 н/о н/о +7.0 +2.1 71 +4 +4 1027.0 985.6
01 20.09 Ю 6 н/о н/о +9.4 +1.6 58 +6 +6 1027.0 985.6 -1.2
03 20.09 Ю 6 н/о н/о +12.4 -0.5 41 +10 +10 1026.0 984.7
04 20.09 Ю 6 н/о 5/5 1500 м
[]
+14.1 -0.4 37 +13 +16 1025.5 984.2
06 20.09 Ю 5 н/о н/о +14.4 -1.6 33 +13 +13 1024.6 983.3
07 20.09 Ю 4 н/о 9/0 2000 м
[]
+15.2 -1.8 31 +15 +18 1024.5 983.2
09 20.09 ЮВ 6 н/о н/о +14.3 -2.6 31 +13 +13 1025.1 983.8
10 20.09 Ю 4 н/о 1/0 2000 м
[]
+12.7 -2.0 36 +11 +11 1025.5 984.2
12 20.09 ЮВ 2 н/о н/о +9.1 -2.2 45 +8 +8 1026.6 985.2
13 20.09 В 2 н/о 4/0
[]
+6.6 -2.5 52 +5 +5 1026.8 985.4 +17.0
15 20.09 Ю 2 н/о н/о +6.0 -0.5 63 +4 +4 1027.2 985.8
16 20.09 ЮВ 3 н/о н/о +6.8 +1.7 70 +4 +4 1027.3 985.9
18 20.09 ЮВ 2 н/о н/о +4.5 +1.4 80 +2 +2 1027.0 985.6
19 20.09 штиль 0 н/о н/о +2.8 0.0 82 +2 +2 1027.4 986.0
21 20.09 ЮВ 3 н/о н/о +2.6 +0.8 88 -2 -2 1028.1 986.7
22 20.09 штиль 0 н/о н/о +0.7 -1.1 88 -1 -1 1028.6 987.2
00 21.09 СВ 2 н/о н/о +10.1 +4.3 67 +9 +9 1029.3 987.8
01 21.09 ЮВ 2 н/о н/о +12.2 +3.4 55 +11 +11 1029.3 987.8 +0.5
03 21.09 Ю 4 н/о н/о +14.6 +0.8 39 +14 +14 1028.5 987.1
04 21.09 Ю 3 н/о 3/3 1500 м
[]
+14.5 +0.4 38 +14 +23 1027.8 986.4
06 21.09 ЮВ 5 н/о н/о +17.5 +0.2 31 +17 +17 1026.2 984.9
07 21.09 Ю 4 н/о н/о +17.0 -1.1 29 +17 +17 1026.0 984.7
09 21.09 Ю 6 н/о н/о +16.5 -1.6 29 +15 +15 1026.7 985.3
10 21.09 Ю 5 н/о н/о +14.9 -0.8 34 +14 +14 1027.4 986.0
12 21.09 Ю 4 н/о н/о +11.1 -0.7 44 +9 +9 1028.4 987.0
13 21.09 В 2 н/о н/о +9.1 -1.0 49 +8 +8 1028.6 987.2 +18.4

 

Местоположение метеостанции Саутерн Кросс (Западная Австралия, Австралия): широта -31.23 долгота 119.35 высота над уровнем моря 348 м.

В архиве по умолчанию представлена погода в Саутерн Кросс за последнюю неделю. Архивные данные за месяц целиком и за предыдущие месяцы, начиная с января 2011 года, Вы можете получить, выбрав интересующий диапазон дат из раскрывающегося списка и нажав кнопку "Ввод!".


*Определитесь, кто Вы:
робот инопланетянин человек

Внимание! Время в таблицах - всемирное. Для получения местного времени необходимо прибавить поправку, которая равна 8 ч.

Смотрите также архив погоды в соседних городах и на ближайших метеорологических станциях:

Погода в Калгурли-Боулдере (Западная Австралия, Австралия) (206 км)
Погода в Кандердине (Западная Австралия, Австралия) (207 км)
Погода в Ньюдегейте (Западная Австралия, Австралия) (216 км)
Погода на Озере Грейс (Западная Австралия, Австралия) (224 км)
Погода в Норсмане (Западная Австралия, Австралия) (252 км)
Погода в Дауоллину (Западная Австралия, Австралия) (277 км)
Погода в Мунглинап Запад (Западная Австралия, Австралия) (288 км)
Погода в Салмон Гамс (Западная Австралия, Австралия) (289 км)
Погода в Джакапе (Западная Австралия, Австралия) (296 км)
Погода в Уондеринге (Западная Австралия, Австралия) (299 км)

Пояснения к столбцам:

Ветер - указаны скорость ветра в м/с - средняя за 10 мин, порывы в срок и между сроками (в фигурных скобках) и направление, откуда дует ветер: С - северный, СВ - северо-восточный, В - восточный, ЮВ - юго-восточный, Ю - южный, ЮЗ - юго-западный, З - западный, СЗ - северо-западный.
Видимость - горизонтальная дальность видимости в метрах или километрах. При видимости от 1 до 10 км при отсутствии осадков обычно наблюдается дымка, при ухудшении видимости до 1 км и менее - туман. В сухую погоду видимость может ухудшаться дымом, пылью или мглою.
Явления - указаны атмосферные явления, наблюдавшиеся в срок или в последний час перед сроком; фигурными скобками обозначены явления, наблюдавшиеся между сроками (за 1-3 часа до срока); квадратными скобками обозначены град или гололедные отложения с указанием их диаметра в мм.
Облачность - указаны через наклонную черту общая и нижняя облачность в баллах и высота нижней границы облаков в метрах; квадратными скобками обозначены формы облаков: Ci - перистые, Cs - перисто-слоистые, Cc - перисто-кучевые, Ac - высококучевые, As - высокослоистые, Sc - слоисто-кучевые, Ns - слоисто-дождевые, Cu - кучевые, Cb - кучево-дождевые. Подробнее классификацию облаков см. в Атласе облаков (PDF).
T - Температура воздуха - температура, измеренная на высоте 2 м над землей.
Td - Температура точки росы - температура, при понижении до которой содержащийся в воздухе водяной пар достигнет насыщения.
f - Относительная влажность воздуха - влажноcть воздуха, измеренная на высоте 2 м над землей.
Te - Эффективная температура - температура, которую ощущает одетый по сезону человек в тени. Характеристика душности погоды. При расчете учитывается влияние влажности воздуха и скорости ветра на теплоощущения человека.
Tes - Эффективная температура на солнце - температура, которую ощущает человек, с поправкой на солнечный нагрев. Характеристика знойности погоды. Зависит от высоты солнца над горизонтом, облачности и скорости ветра. Ночью, в пасмурную погоду, а также при ветре 12 м/с и более поправка равна нулю.
P - Атмосферное давление - приведенное к уровню моря атмосферное давление.
Po - Атмосферное давление - измеренное на уровне метеостанции атмосферное давление.
Tmin - Минимальная температура - минимум температуры воздуха на высоте 2 м над землей.
Tmax - Максимальная температура - максимум температуры воздуха на высоте 2 м над землей.
R - Количество осадков - Количество выпавших осадков за период времени, мм. При наведении курсора мыши на число - период времени, за который выпало указанное количество осадков.
R24 - Количество осадков - Количество выпавших осадков за 24 часа, мм.
S - Снежный покров - Высота снежного покрова, см. При наведении курсора мыши на число - состояние снежного покрова и степень покрытия местности в баллах.